Regional Weather Roundup
Issued by NWS

Home | Current Version | Previous Version | Text Only | Print | Product List | Glossary On
Versions: 1 2 3 4 5 6 7 8 9 10 11 12 13 14 15 16 17 18 19 20 21 22 23 24 25 26 27 28 29 30 31 32 33 34 35 36 37 38 39 40 41 42 43 44 45 46 47 48 49 50
717
ASUS44 KJAN 230410
RWRMS

MISSISSIPPI HOURLY WEATHER ROUNDUP
NATIONAL WEATHER SERVICE JACKSON MS
1000 PM CST SAT NOV 22 2014

NOTE: "FAIR: INDICATES FEW OR NO CLOUDS BELOW 12,000 FEET WITH NO
SIGNIFICANT WEATHER AND/OR OBSTRUCTIONS TO VISIBILITY.

MSZ001>002-007>008-010>013-018>021-025>028-034>036-230500-
NORTHWEST MISSISSIPPI

CITY           SKY/WX    TMP DP  RH WIND       PRES   REMARKS
CLARKSDALE     MOCLDY    57  50  77 SE10      29.99F
CLEVELAND      FAIR      56  51  81 E8        29.95F
GREENWOOD      MOCLDY    57  49  74 E7        29.97F
GREENVILLE     PTCLDY    57  50  77 E7        29.94F
GRENADA        MOCLDY    54  48  82 CALM      29.99F
OLIVE BRANCH   CLEAR     55  50  82 S9        30.00F
OXFORD         FAIR      55  46  71 SE3       30.02F
TUNICA         CLOUDY    55  48  76 SE7       29.98F
$$

MSZ003>006-009-014>017-022>024-029>033-037>039-230500-
NORTHEAST MISSISSIPPI

CITY           SKY/WX    TMP DP  RH WIND       PRES   REMARKS
COLUMBUS AFB   MIX PCPN  63  52  67 SE12      30.05F
CORINTH        CLOUDY    57  48  72 SE7       30.04F
GOLDN TRIANGLE CLOUDY    63  52  67 SE13      30.04S
STARKVILLE     CLOUDY    61  52  72 SE9       30.04S
TUPELO         CLOUDY    58  49  72 S8        30.05F
$$

MSZ040-058-230500-
CENTRAL MISSISSIPPI

CITY           SKY/WX    TMP DP  RH WIND       PRES   REMARKS
JACKSON INTL   MOCLDY    60  55  83 SE13      29.97F
JACKSON HAWKNS PTCLDY    59  53  80 SE8       29.97F
MERIDIAN KEY   CLOUDY    61  56  83 SE14G23   30.03F
MERIDIAN NAS   LGT RAIN  59  57  93 SE9G17    30.06F FOG
RAYMOND        FAIR      59  54  82 SE8       29.95F
VICKSBURG      CLEAR     60  53  77 SE13      29.93F
$$

MSZ059>079-230500-
SOUTH MISSISSIPPI

CITY           SKY/WX    TMP DP  RH WIND       PRES   REMARKS
BROOKHAVEN     CLOUDY    61  57  88 SE7G16    29.97S
HATTIESBURG    CLOUDY    62  57  83 E10       29.99F
MCCOMB         CLOUDY    61  57  87 SE9G22    29.96S
NATCHEZ        CLOUDY    63  55  77 SE18      29.92F
PINE BELT      CLOUDY    61  54  77 E8        30.00F
$$

MSZ080>082-230500-
COASTAL MISSISSIPPI

CITY           SKY/WX    TMP DP  RH WIND       PRES   REMARKS
BILOXI         CLOUDY    62  59  92 E15       29.97F
PASCAGOULA     CLOUDY    62  59  90 E10       29.99F
GULFPORT       CLOUDY    62  59  90 E14       29.96F
$$



USA.gov is the U.S. government's official web portal to all federal, state and local government web resources and services.